Regional Weather Roundup
Issued by NWS Cleveland, OH

Home | Current Version | Previous Version | Graphics & Text | Print | Product List | Glossary On
Versions: 1 2 3 4 5 6 7 8 9 10 11 12 13 14 15 16 17 18 19 20 21 22 23 24 25 26 27 28 29 30 31 32 33 34 35 36 37 38 39 40 41 42 43 44 45 46 47 48 49 50
000
ASUS41 KCLE 231912
RWRCLE
OHIO REGIONAL WEATHER ROUNDUP
NATIONAL WEATHER SERVICE WILMINGTON, OH
300 PM EDT SUN APR 23 2017

NOTE: "FAIR" INDICATES FEW OR NO CLOUDS BELOW 12,000 FEET WITH NO
SIGNIFICANT WEATHER AND/OR OBSTRUCTIONS TO VISIBILITY.

OHZ001>008-015>018-024>027-034-035-043-044-232000-
   NORTHWEST OHIO

CITY           SKY/WX    TMP DP  RH WIND       PRES   REMARKS
DEFIANCE       FAIR      64  34  32 MISG      30.07F
FINDLAY        FAIR      67  33  28 VRB5      30.06S
TOLEDO EXPRESS FAIR      64  27  24 E9        30.07F
TOLEDO EXEC    FAIR      64  37  36 E7        30.09F
LIMA           FAIR      65  32  29 NE9G18    30.04F
$$

OHZ009>014-019>023-028>033-038-089-232000-
   NORTHEAST OHIO

CITY           SKY/WX    TMP DP  RH WIND       PRES   REMARKS
CLE-HOPKINS    FAIR      63  38  39 N13       30.09F
CLE-LAKEFRONT  FAIR      52  43  71 N9        30.08F
CUY CO. ARPT   MOSUNNY   61  39  44 N9        30.08F
LORAIN-ELYRIA  FAIR      63  38  39 N10       30.07F
ASHTABULA      FAIR      62  39  42 NW12      30.08F
AKRON-CANTON   FAIR      65  34  31 E8        30.05F
WOOSTER        FAIR      64  35  34 VRB7      30.06F
MANSFIELD      FAIR      66  31  27 NE10G17   30.05S
YOUNGSTOWN     FAIR      66  32  28 NE7       30.04F
$$

OHZ042-051>053-060>062-070>072-077>081-232000-
  SOUTHWEST OHIO

CITY           SKY/WX    TMP DP  RH WIND       PRES   REMARKS
CINC-COVINGTON PTSUNNY   61  36  39 NE17      29.98S
CINC-LUNKEN    FAIR      62  42  47 NE14      29.99F
HAMILTON       FAIR      63  37  38 E16G22    30.01S
DAYTON         PTSUNNY   68  34  28 NE12      30.01F
WRIGHT-PAT AFB FAIR      68  31  25 NE13      30.00F
DAYTON GENERAL FAIR      63  33  32 E12       30.00F
WILMINGTON     FAIR      60  41  49 NE10      30.00F
$$

OHZ036-037-039>041-045>050-054>059-063>069-073>076-082>088-232000-
  CENTRAL AND SOUTHEAST OHIO

CITY           SKY/WX    TMP DP  RH WIND       PRES   REMARKS
COLUMBUS       PTSUNNY   69  36  29 NE10      30.00F
OSU AIRPORT    FAIR      67  32  27 NE13      30.00F
BOLTON FIELD   SUNNY     66  36  32 SE10      30.01F
RICKENBACK AFB FAIR      64  37  37 E12       30.00F
NEWARK         FAIR      68  32  26 E12       30.01S
MARION         FAIR      69  28  21 E10       30.03S
LANCASTER      FAIR      67  34  29 E15       30.00F
ZANESVILLE     FAIR      68  33  27 E10G18    30.02S
NEW PHILLY     FAIR      68  34  28 SE8       30.04F
$$



USA.gov is the U.S. government's official web portal to all federal, state and local government web resources and services.